Greenville, ME

2:25 PM EST on February 23, 2017 (GMT -0500)
Greenville

Weather History for KGNR - March, 2013

Change the Weather History Date:

Tuesday, March 26, 2013

  Actual Average (KMLT) Record (KMLT)
Temperature  
Mean Temperature 30 °F -  
Max Temperature 39 °F 41 °F 69 °F (1987)
Min Temperature 21 °F 21 °F -7 °F (1912)
Degree Days  
Heating Degree Days 35    
Moisture  
Dew Point 24 °F    
Average Humidity 76    
Maximum Humidity 92    
Minimum Humidity 51    
Precipitation  
Precipitation 0.00 in - - ()
Sea Level Pressure  
Sea Level Pressure 29.62 in    
Wind  
Wind Speed 8 mph (NNW)    
Max Wind Speed 14 mph    
Max Gust Speed 24 mph    
Averages and records for this station are not official NWS values.
T = Trace of Precipitation, MM = Missing Value Source: NWS Daily Summary

Daily Weather History Graph

Daily Weather History Graph

Search for Another Location

Airport or City:

Trip Planner

Search our weather history database for the weather conditions in past years. The results will help you decide how hot, cold, wet, or windy it might be!

Date:

Astronomy

Mar. 26, 2013 Rise Set
Actual Time 6:29 AM EDT 6:58 PM EDT
Civil Twilight 5:59 AM EDT 7:28 PM EDT
Nautical Twilight 5:24 AM EDT 8:03 PM EDT
Astronomical Twilight 4:48 AM EDT 8:40 PM EDT
Moon 6:32 PM EDT (3/26) 5:45 AM EDT (3/26)
Length of Visible Light 13h 28m
Length of Day
12h 29m
Waxing Gibbous, 99% of the Moon is Illuminated
Mar 26
Waxing Gibbous
Mar 27
Full
Apr 3
Last Quarter
Apr 10
New
Apr 18
First Quarter

Hourly Weather History & Observations

Time (EDT) Temp. Windchill Dew Point Humidity Pressure Visibility Wind Dir Wind Speed Gust Speed Precip Events Conditions
12:56 AM 28.0 °F 20.0 °F 21.0 °F 75% 29.61 in - North 8.1 mph - N/A   Unknown
1:56 AM 27.0 °F 18.7 °F 21.0 °F 78% 29.60 in - North 8.1 mph - N/A   Unknown
2:56 AM 25.0 °F 20.7 °F 21.0 °F 85% 29.60 in - NW 3.5 mph - N/A   Unknown
3:56 AM 23.0 °F 18.4 °F 19.9 °F 88% 29.59 in - Variable 3.5 mph - N/A   Unknown
4:56 AM 24.1 °F 14.4 °F 21.0 °F 88% 29.58 in - NNW 9.2 mph - N/A   Unknown
5:56 AM 21.0 °F 14.6 °F 19.0 °F 92% 29.59 in - Variable 4.6 mph - N/A   Unknown
6:56 AM 21.0 °F - 19.0 °F 92% 29.60 in - Calm Calm - N/A   Unknown
7:56 AM 26.1 °F 20.5 °F 21.0 °F 81% 29.61 in - Variable 4.6 mph - N/A   Unknown
8:56 AM 26.1 °F - 21.0 °F 81% 29.61 in - Calm Calm - N/A   Unknown
9:56 AM 30.0 °F 19.5 °F 23.0 °F 75% 29.61 in - NW 13.8 mph 20.7 mph N/A   Unknown
10:56 AM 30.9 °F 22.8 °F 24.1 °F 76% 29.62 in - NNW 9.2 mph 19.6 mph N/A   Unknown
11:56 AM 33.1 °F 24.4 °F 25.0 °F 72% 29.61 in - NW 11.5 mph 20.7 mph N/A   Unknown
12:56 PM 37.0 °F 28.5 °F 26.1 °F 65% 29.60 in - NNW 13.8 mph 21.9 mph N/A   Unknown
1:56 PM 37.9 °F 29.6 °F 25.0 °F 60% 29.61 in - NW 13.8 mph 21.9 mph N/A   Unknown
2:56 PM 39.9 °F 33.4 °F 23.0 °F 51% 29.60 in - NW 10.4 mph 24.2 mph N/A   Unknown
3:56 PM 39.0 °F 32.8 °F 24.1 °F 55% 29.61 in - NW 9.2 mph - N/A   Unknown
4:56 PM 39.0 °F 32.3 °F 26.1 °F 60% 29.61 in - NW 10.4 mph 17.3 mph N/A   Unknown
5:56 PM 37.9 °F 30.5 °F 23.0 °F 55% 29.64 in - NNW 11.5 mph 17.3 mph N/A   Unknown
6:56 PM 35.1 °F 25.9 °F 28.0 °F 76% 29.67 in - NNW 13.8 mph 20.7 mph N/A   Unknown
7:56 PM 33.1 °F 23.4 °F 28.9 °F 85% 29.68 in - NNW 13.8 mph 20.7 mph N/A   Unknown
8:56 PM 33.1 °F 23.4 °F 27.0 °F 78% 29.68 in - NNW 13.8 mph 20.7 mph N/A   Unknown
9:56 PM 32.0 °F 25.6 °F 26.1 °F 79% 29.67 in - NW 6.9 mph 18.4 mph N/A   Unknown
10:56 PM 30.9 °F 20.7 °F 26.1 °F 82% 29.67 in - NNW 13.8 mph 20.7 mph N/A   Unknown
11:56 PM 30.0 °F 20.5 °F 27.0 °F 88% 29.68 in - NW 11.5 mph 18.4 mph N/A   Unknown